South El Monte Past Weather

Last 30 Days

High: 57ºf @1:57 AM    Low: 55ºf @12:57 AM     Approx. Precipitation / Rain Total: in.
Time (PDT)Temp. (ºf)Humidity (%)Dew Point (ºf)Barometer (inHG)Wind Speed (mph)Wind DirectionWind Gust (mph)1hr. Precip / Rain Total (in.)Snow Depth
3:57 AM579154.4-0.87sw4.34--
2:57 AM579154.4-2.61wsw5.21--
1:57 AM579254.7-2.61sw4.34--
12:57 AM559653.88-1.74sw3.48--
High: 80ºf @2:57 PM    Low: 49ºf @5:57 AM     Approx. Precipitation / Rain Total: in.
Time (PDT)Temp. (ºf)Humidity (%)Dew Point (ºf)Barometer (inHG)Wind Speed (mph)Wind DirectionWind Gust (mph)1hr. Precip / Rain Total (in.)Snow Depth
11:57 PM559453.3-1.74sw3.48--
10:57 PM579054.09-1.74sw4.34--
9:57 PM588553.51-2.61sw3.48--
8:57 PM617854.09-2.61wsw6.95--
7:57 PM656954.57-4.34wsw8.69--
6:57 PM715855.47-6.08wsw11.3--
5:57 PM745154.71-6.95wsw13.03--
4:57 PM774755.2-6.08sw13.03--
3:57 PM794455.2-6.08sw12.17--
2:57 PM804254.82-6.08wsw11.3--
1:57 PM784655.52-5.21sw10.43--
12:57 PM764955.44-4.34wsw10.43--
11:57 AM725454.43-4.34sw13.03--
10:57 AM696054.53-3.48sw8.69--
9:57 AM666754.72-3.48wnw6.08--
8:57 AM608154.15-1.74w4.34--
7:57 AM588854.46-1.74s3.48--
6:57 AM549953.72-0.87sw2.61--
5:57 AM499848.46------
4:57 AM519850.45---1.74--
3:57 AM519750.18---2.61--
2:57 AM529550.61---2.61--
1:57 AM529550.61---1.74--
12:57 AM548950.83-1.74sw2.61--
High: 77ºf @4:57 PM    Low: 53ºf @12:57 AM     Approx. Precipitation / Rain Total: in.
Time (PDT)Temp. (ºf)Humidity (%)Dew Point (ºf)Barometer (inHG)Wind Speed (mph)Wind DirectionWind Gust (mph)1hr. Precip / Rain Total (in.)Snow Depth
11:57 PM558751.2-2.61wsw2.61--
10:57 PM568451.23-1.74wsw3.48--
9:57 PM587951.52-2.61wsw4.34--
8:57 PM617352.28-2.61sw6.08--
7:57 PM656552.94-4.34wsw9.56--
6:57 PM715554.01-5.21wsw10.43--
5:57 PM744853.05-5.21w11.3--
4:57 PM774453.4-3.48wsw10.43--
3:57 PM754652.8-4.34w10.43--
2:57 PM734952.7-2.61sw9.56--
1:57 PM705352.07-0.87nne6.95--
12:57 PM675851.73-1.74ssw11.3--
11:57 AM656251.66-1.74w5.21--
10:57 AM656452.52-0.87nne5.21--
9:57 AM617251.9-0.87ese4.34--
8:57 AM617251.9---2.61--
7:57 AM597651.44-0.87ese4.34--
6:57 AM578351.89-0.87n3.48--
5:57 AM568852.49-1.74nnw3.48--
4:57 AM578351.89-0.87n4.34--
3:57 AM578351.89-0.87wnw4.34--
2:57 AM578452.21-1.74w3.48--
1:57 AM558851.51---1.74--
12:57 AM538849.54-0.87se3.48--
High: 73ºf @3:57 PM    Low: 55ºf @5:57 AM     Approx. Precipitation / Rain Total: in.
Time (PDT)Temp. (ºf)Humidity (%)Dew Point (ºf)Barometer (inHG)Wind Speed (mph)Wind DirectionWind Gust (mph)1hr. Precip / Rain Total (in.)Snow Depth
11:57 PM558450.25-1.74sse3.48--
10:57 PM587750.83-0.87sw6.95--
9:57 PM607351.32-4.34sse6.95--
8:57 PM626851.31-3.48sw8.69--
7:57 PM636450.63-5.21wsw12.17--
6:57 PM665850.79-6.08wsw13.03--
5:57 PM705050.49-6.95wsw12.17--
4:57 PM724650.07-4.34wsw10.43--
3:57 PM734550.39-4.34ssw11.3--
2:57 PM724448.88-4.34sw8.69--
1:57 PM714548.58-3.48wnw9.56--
12:57 PM704748.83-2.61ssw7.82--
11:57 AM685048.66-3.48ene7.82--
10:57 AM675248.79-3.48se8.69--
9:57 AM645848.92-0.87ese4.34--
8:57 AM626449.68-0.87s4.34--
7:57 AM597249.98-0.87s3.48--
6:57 AM577749.86-0.87sw2.61--
5:57 AM558249.61-0.87w2.61--
4:57 AM558249.61-1.74wsw5.21--
3:57 AM568049.92-2.61w6.95--
2:57 AM568049.92-3.48wsw5.21--
1:57 AM568451.23-0.87w3.48--
12:57 AM578151.23-2.61wsw3.48--
High: 71ºf @3:57 PM    Low: 55ºf @1:57 AM     Approx. Precipitation / Rain Total: in.
Time (PDT)Temp. (ºf)Humidity (%)Dew Point (ºf)Barometer (inHG)Wind Speed (mph)Wind DirectionWind Gust (mph)1hr. Precip / Rain Total (in.)Snow Depth
11:57 PM578050.89-0.87wsw2.61--
10:57 PM597450.72-1.74sw5.21--
9:57 PM607250.94-3.48sw7.82--
8:57 PM617151.53-4.34wsw7.82--
7:57 PM627052.1-5.21wsw10.43--
6:57 PM646652.41-6.95wsw11.3--
5:57 PM676253.54-5.21wsw9.56--
4:57 PM686053.59-5.21wsw9.56--
3:57 PM715453.5-0.87w6.95--
2:57 PM686053.59-2.61nw6.08--
1:57 PM656954.57-2.61nne5.21--
12:57 PM627453.61---4.34--
11:57 AM608655.8-2.61s6.95--
10:57 AM628557.43-0.87nnw2.61--
9:57 AM589656.86---3.48--
8:57 AM589757.15-1.74w3.48--
7:57 AM579555.58-0.87wsw2.61--
6:57 AM589155.39-0.87sw3.48--
5:57 AM588754.15---1.74--
4:57 AM588553.51---2.61--
3:57 AM578652.85---2.61--
2:57 AM578552.53---2.61--
1:57 AM559152.42---2.61--
12:57 AM559453.3---0.87--
High: 68ºf @2:57 PM    Low: 54ºf @11:57 PM     Approx. Precipitation / Rain Total: in.
Time (PDT)Temp. (ºf)Humidity (%)Dew Point (ºf)Barometer (inHG)Wind Speed (mph)Wind DirectionWind Gust (mph)1hr. Precip / Rain Total (in.)Snow Depth
11:57 PM548850.53---2.61--
10:57 PM568752.18-2.61wsw4.34--
9:57 PM578552.53-2.61sw3.48--
8:57 PM617753.73-2.61wsw6.95--
7:57 PM646752.82-2.61w6.08--
6:57 PM646551.99-4.34wnw8.69--
5:57 PM656352.09-4.34w9.56--
4:57 PM666152.16-4.34sw10.43--
3:57 PM675952.19-5.21wsw10.43--
2:57 PM685852.66-3.48wnw7.82--
1:57 PM675952.19-4.34wsw8.69--
12:57 PM685752.19-1.74wsw6.95--
11:57 AM665951.25-3.48wsw8.69--
10:57 AM666252.6-1.74s6.95--
9:57 AM646853.22-2.61wnw6.08--
8:57 AM597952.49-1.74sw3.48--
7:57 AM588152.2---3.48--
6:57 AM588152.2-1.74ssw4.34--
5:57 AM588051.86-1.74ssw4.34--
4:57 AM588051.86-1.74sw3.48--
3:57 AM598353.84-0.87wsw3.48--
2:57 AM598153.17-2.61wsw4.34--
1:57 AM598253.51-0.87wsw4.34--
12:57 AM598153.17-2.61sw5.21--
High: 76ºf @3:57 PM    Low: 51ºf @3:57 AM     Approx. Precipitation / Rain Total: in.
Time (PDT)Temp. (ºf)Humidity (%)Dew Point (ºf)Barometer (inHG)Wind Speed (mph)Wind DirectionWind Gust (mph)1hr. Precip / Rain Total (in.)Snow Depth
11:57 PM598052.84-1.74s5.21--
10:57 PM608053.81-2.61s6.08--
9:57 PM617753.73-2.61sw6.08--
8:57 PM627553.98-3.48wsw6.95--
7:57 PM637253.83-4.34wsw10.43--
6:57 PM666553.89-6.08wsw13.03--
5:57 PM725454.43-7.82w12.17--
4:57 PM755055.08-6.95wsw12.17--
3:57 PM764854.87-5.21w11.3--
2:57 PM745154.71-5.21w11.3--
1:57 PM715754.99-2.61nnw8.69--
12:57 PM676353.98-4.34nw8.69--
11:57 AM637354.2-3.48ssw7.82--
10:57 AM617653.38-1.74wsw4.34--
9:57 AM607953.47-0.87sse4.34--
8:57 AM598153.17-1.74e3.48--
7:57 AM588553.51-0.87wnw4.34--
6:57 AM569153.41-0.87nne4.34--
5:57 AM559453.3-0.87n2.61--
4:57 AM539952.73-0.87sw1.74--
3:57 AM519850.45---1.74--
2:57 AM529851.45---0.87--
1:57 AM539551.61---2.61--
12:57 AM549352.02-0.87sw2.61--
High: 76ºf @3:57 PM    Low: 55ºf @11:57 PM     Approx. Precipitation / Rain Total: in.
Time (PDT)Temp. (ºf)Humidity (%)Dew Point (ºf)Barometer (inHG)Wind Speed (mph)Wind DirectionWind Gust (mph)1hr. Precip / Rain Total (in.)Snow Depth
11:57 PM559152.42-1.74wsw3.48--
10:57 PM568651.87-1.74wsw3.48--
9:57 PM578151.23-2.61wsw5.21--
8:57 PM607652.41-3.48wsw7.82--
7:57 PM636751.86-3.48wsw8.69--
6:57 PM685752.19-5.21wsw12.17--
5:57 PM715051.41-6.95wsw13.9--
4:57 PM754652.8-6.95wsw12.17--
3:57 PM764351.87-7.82wsw13.9--
2:57 PM764251.23-6.08wsw13.03--
1:57 PM744450.69-5.21sw9.56--
12:57 PM724851.22-4.34wsw10.43--
11:57 AM695451.65-2.61nnw7.82--
10:57 AM656050.77-3.48w7.82--
9:57 AM646250.71-2.61sw7.82--
8:57 AM636551.04-3.48sw6.08--
7:57 AM626951.71-2.61w6.08--
6:57 AM578151.23-0.87sw2.61--
5:57 AM568551.55-1.74wsw2.61--
4:57 AM578050.89-0.87wsw2.61--
3:57 AM587951.52-0.87ssw2.61--
2:57 AM587851.18-0.87wsw3.48--
1:57 AM587650.48-0.87w3.48--
12:57 AM587650.48-1.74wsw3.48--
High: 69ºf @4:57 PM    Low: 53ºf @12:57 AM     Approx. Precipitation / Rain Total: in.
Time (PDT)Temp. (ºf)Humidity (%)Dew Point (ºf)Barometer (inHG)Wind Speed (mph)Wind DirectionWind Gust (mph)1hr. Precip / Rain Total (in.)Snow Depth
11:57 PM597350.36-1.74w4.34--
10:57 PM597149.61-1.74sw3.48--
9:57 PM606949.8-2.61sw6.95--
8:57 PM606949.8-3.48wsw8.69--
7:57 PM616749.96-4.34wsw9.56--
6:57 PM646551.99-5.21wsw11.3--
5:57 PM676052.65-5.21wsw11.3--
4:57 PM695753.12-5.21wsw9.56--
3:57 PM695552.15-5.21wsw8.69--
2:57 PM695351.15-4.34wnw8.69--
1:57 PM685752.19-3.48wnw9.56--
12:57 PM675952.19-1.74nw6.08--
11:57 AM656352.09-2.61sw6.95--
10:57 AM656854.17-1.74nw5.21--
9:57 AM608354.82-1.74n4.34--
8:57 AM579555.58-2.61n5.21--
7:57 AM579254.7-0.87ne5.21--
6:57 AM578753.17-1.74ene5.21--
5:57 AM578452.21-0.87nnw3.48--
4:57 AM578351.89-0.87w2.61--
3:57 AM578351.89---3.48--
2:57 AM578552.53---1.74--
1:57 AM559553.59---1.74--
12:57 AM539351.03-1.74w3.48--
High: 76ºf @1:57 PM    Low: 54ºf @11:57 PM     Approx. Precipitation / Rain Total: in.
Time (PDT)Temp. (ºf)Humidity (%)Dew Point (ºf)Barometer (inHG)Wind Speed (mph)Wind DirectionWind Gust (mph)1hr. Precip / Rain Total (in.)Snow Depth
11:57 PM548950.83-1.74wsw3.48--
10:57 PM558650.89-1.74w4.34--
9:57 PM587750.83-2.61wsw6.95--
8:57 PM597651.44-3.48wsw5.21--
7:57 PM636852.27-3.48sw10.43--
6:57 PM676052.65-6.08wsw12.17--
5:57 PM715151.95-6.95wsw11.3--
4:57 PM734952.7-4.34sw12.17--
3:57 PM744752.47-6.08wsw13.9--
2:57 PM744752.47-7.82sw14.77--
1:57 PM764251.23-4.34wsw11.3--
12:57 PM734751.56-4.34wsw10.43--
11:57 AM705352.07-3.48sse8.69--
10:57 AM656452.52-3.48ne6.08--
9:57 AM636952.66-1.74ne5.21--
8:57 AM607451.69-2.61ne6.08--
7:57 AM597751.8-2.61ne6.95--
6:57 AM588051.86-3.48ne7.82--
5:57 AM578251.56-2.61ne7.82--
4:57 AM578452.21-2.61ne6.08--
3:57 AM578753.17-2.61nne5.21--
2:57 AM578652.85-1.74nne4.34--
1:57 AM578652.85-2.61w4.34--
12:57 AM578652.85-2.61wsw5.21--
High: 76ºf @3:57 PM    Low: 54ºf @1:57 AM     Approx. Precipitation / Rain Total: in.
Time (PDT)Temp. (ºf)Humidity (%)Dew Point (ºf)Barometer (inHG)Wind Speed (mph)Wind DirectionWind Gust (mph)1hr. Precip / Rain Total (in.)Snow Depth
11:57 PM569153.41-0.87sw3.48--
10:57 PM549251.73-2.61wsw4.34--
9:57 PM568852.49-2.61wsw6.08--
8:57 PM598153.17-3.48wsw6.95--
7:57 PM627353.24-4.34wsw9.56--
6:57 PM686254.48-5.21sw11.3--
5:57 PM715654.5-6.08wsw13.03--
4:57 PM754954.53-6.08w13.03--
3:57 PM764854.87-6.95wsw12.17--
2:57 PM745154.71-5.21wsw11.3--
1:57 PM725655.43-5.21wnw9.56--
12:57 PM696154.98-1.74w5.21--
11:57 AM667055.93-2.61nnw6.08--
10:57 AM647455.54-3.48sse6.08--
7:57 AM608354.82---3.48--
6:57 AM598554.49---0.87--
5:57 AM588653.83---2.61--
1:57 AM549352.02---2.61--
12:57 AM549352.02---2.61--
High: 72ºf @5:57 PM    Low: 56ºf @11:57 PM     Approx. Precipitation / Rain Total: in.
Time (PDT)Temp. (ºf)Humidity (%)Dew Point (ºf)Barometer (inHG)Wind Speed (mph)Wind DirectionWind Gust (mph)1hr. Precip / Rain Total (in.)Snow Depth
11:57 PM568551.55-2.61w3.48--
10:57 PM597852.15---6.08--
9:57 PM607752.77-4.34wsw6.95--
8:57 PM627353.24-2.61wsw10.43--
7:57 PM637053.06-6.08wsw10.43--
6:57 PM676353.98-6.95wsw9.56--
5:57 PM725655.43-4.34w9.56--
4:57 PM725755.92-3.48wnw8.69--
3:57 PM706055.46-1.74s6.95--
2:57 PM696154.98-1.74ssw8.69--
1:57 PM686455.36-2.61w7.82--
12:57 PM676755.67-3.48w7.82--
11:57 AM657155.36-2.61w6.08--
10:57 AM647455.54-1.74ssw5.21--
9:57 AM637655.31-1.74ssw4.34--
8:57 AM627955.41-1.74wsw5.21--
7:57 AM608154.15-1.74sw4.34--
6:57 AM608254.49-0.87wsw2.61--
5:57 AM598353.84-1.74wsw2.61--
4:57 AM598153.17-1.74wsw2.61--
3:57 AM608154.15-0.87sw3.48--
2:57 AM608053.81---2.61--
1:57 AM598153.17---3.48--
12:57 AM598052.84-1.74wsw5.21--
High: 69ºf @3:57 PM    Low: 58ºf @4:57 AM     Approx. Precipitation / Rain Total: in.
Time (PDT)Temp. (ºf)Humidity (%)Dew Point (ºf)Barometer (inHG)Wind Speed (mph)Wind DirectionWind Gust (mph)1hr. Precip / Rain Total (in.)Snow Depth
11:57 PM598153.17-2.61sw5.21--
10:57 PM607752.77-2.61sw6.08--
9:57 PM617553.02-3.48w6.95--
8:57 PM627453.61-4.34wsw7.82--
7:57 PM637153.44-4.34wsw8.69--
6:57 PM666553.89-4.34wsw6.95--
5:57 PM686154.04-4.34wsw9.56--
4:57 PM686154.04-4.34sw8.69--
3:57 PM696054.53-3.48w8.69--
2:57 PM686354.92-4.34w7.82--
1:57 PM686354.92-2.61wnw6.95--
12:57 PM666754.72-0.87nne5.21--
11:57 AM647254.79-2.61wnw6.08--
10:57 AM637454.58-2.61sw6.08--
9:57 AM627855.06-4.34w6.95--
8:57 AM608354.82-3.48w6.95--
7:57 AM608555.47-0.87sw3.48--
6:57 AM589055.08---1.74--
5:57 AM589355.99---1.74--
4:57 AM589255.69-0.87wnw4.34--
3:57 AM588954.77-2.61w4.34--
2:57 AM598454.17-2.61sw4.34--
1:57 AM598253.51-1.74sw4.34--
12:57 AM598353.84-1.74wsw4.34--
High: 66ºf @5:57 PM    Low: 59ºf @4:57 AM     Approx. Precipitation / Rain Total: in.
Time (PDT)Temp. (ºf)Humidity (%)Dew Point (ºf)Barometer (inHG)Wind Speed (mph)Wind DirectionWind Gust (mph)1hr. Precip / Rain Total (in.)Snow Depth
11:57 PM598253.51-2.61sw6.08--
10:57 PM608053.81-3.48sw6.08--
9:57 PM607953.47-2.61wsw6.08--
8:57 PM607953.47-2.61wsw6.95--
7:57 PM637153.44-1.74sw6.08--
6:57 PM656653.36-4.34wsw7.82--
5:57 PM666654.31-3.48w7.82--
4:57 PM656753.77-3.48w7.82--
3:57 PM656753.77-3.48wsw8.69--
2:57 PM656854.17-3.48wsw6.95--
1:57 PM656954.57-4.34wnw6.95--
12:57 PM647254.79-3.48wnw6.08--
11:57 AM627654.34-1.74wnw5.21--
10:57 AM608154.15-2.61sw5.21--
9:57 AM617854.09-1.74wsw4.34--
7:57 AM598353.84-2.61s5.21--
6:57 AM598253.51-2.61s6.08--
5:57 AM598153.17-0.87s4.34--
4:57 AM598052.84-1.74s3.48--
3:57 AM598052.84-1.74ssw4.34--
2:57 AM598153.17-1.74sse5.21--
1:57 AM598153.17-0.87wsw4.34--
12:57 AM598153.17-1.74sw5.21--
High: 79ºf @3:57 PM    Low: 58ºf @5:57 AM     Approx. Precipitation / Rain Total: in.
Time (PDT)Temp. (ºf)Humidity (%)Dew Point (ºf)Barometer (inHG)Wind Speed (mph)Wind DirectionWind Gust (mph)1hr. Precip / Rain Total (in.)Snow Depth
11:57 PM598153.17-2.61sw5.21--
10:57 PM598153.17-2.61sw5.21--
9:57 PM608154.15-3.48wsw6.08--
8:57 PM598253.51-2.61wsw6.08--
7:57 PM627453.61-4.34wsw9.56--
6:57 PM686154.04-5.21wsw13.03--
5:57 PM744853.05-6.95wsw13.03--
4:57 PM774252.13-6.95sw13.03--
3:57 PM793951.9-6.08wsw13.03--
2:57 PM774453.4-4.34ssw10.43--
1:57 PM745054.16-5.21wsw11.3--
12:57 PM725554.94-3.48sw10.43--
11:57 AM705854.53-3.48w9.56--
10:57 AM676353.98-4.34wsw8.69--
9:57 AM646853.22-3.48w7.82--
8:57 AM637153.44-1.74se5.21--
7:57 AM607853.12-2.61sse5.21--
6:57 AM598153.17-1.74ese3.48--
5:57 AM588453.19-0.87wsw2.61--
4:57 AM588453.19-1.74ssw4.34--
3:57 AM588453.19-1.74ssw4.34--
2:57 AM598253.51-1.74se3.48--
1:57 AM598353.84-0.87sw3.48--
12:57 AM588453.19-1.74ssw5.21--
High: 77ºf @4:57 PM    Low: 57ºf @10:57 PM     Approx. Precipitation / Rain Total: in.
Time (PDT)Temp. (ºf)Humidity (%)Dew Point (ºf)Barometer (inHG)Wind Speed (mph)Wind DirectionWind Gust (mph)1hr. Precip / Rain Total (in.)Snow Depth
11:57 PM588453.19-1.74ssw5.21--
10:57 PM578953.79-2.61ssw5.21--
9:57 PM588352.86-2.61sw6.95--
8:57 PM617753.73-3.48wsw8.69--
7:57 PM647054.01-3.48wsw8.69--
6:57 PM695954.06-5.21wsw11.3--
5:57 PM745255.24-6.08wsw12.17--
4:57 PM774755.2-6.08sw11.3--
3:57 PM774855.79-5.21sw12.17--
2:57 PM765156.55-5.21sw9.56--
1:57 PM765357.61-4.34w11.3--
12:57 PM745757.78-3.48sw10.43--
11:57 AM726057.34-3.48ssw9.56--
10:57 AM676956.49-3.48sw10.43--
9:57 AM686957.44-3.48ssw6.95--
8:57 AM667256.71-1.74w5.21--
7:57 AM618054.78-1.74ne4.34--
6:57 AM608555.47---6.08--
5:57 AM598755.13-0.87e3.48--
4:57 AM598855.45-1.74ese4.34--
3:57 AM598955.76-1.74wsw3.48--
2:57 AM599056.07-0.87w3.48--
1:57 AM599056.07-0.87wsw4.34--
12:57 AM579555.58-0.87sw3.48--
High: 81ºf @3:57 PM    Low: 55ºf @1:57 AM     Approx. Precipitation / Rain Total: in.
Time (PDT)Temp. (ºf)Humidity (%)Dew Point (ºf)Barometer (inHG)Wind Speed (mph)Wind DirectionWind Gust (mph)1hr. Precip / Rain Total (in.)Snow Depth
11:57 PM559553.59-2.61wsw3.48--
10:57 PM579254.7-1.74wsw3.48--
9:57 PM588954.77-2.61wsw4.34--
8:57 PM618054.78-2.61sw6.08--
7:57 PM657155.36-3.48sw9.56--
6:57 PM715955.94-5.21wsw11.3--
5:57 PM755155.63-6.95wsw12.17--
4:57 PM794555.82-6.08wsw13.03--
3:57 PM814457.01-6.08sw13.9--
2:57 PM814457.01-6.08wsw11.3--
1:57 PM794757.02-4.34wsw10.43--
12:57 PM765257.08-3.48wsw11.3--
11:57 AM735756.85-2.61sw8.69--
10:57 AM706356.81-3.48sse6.95--
9:57 AM657255.75-2.61se5.21--
8:57 AM627855.06-1.74ne3.48--
7:57 AM608254.49-0.87n4.34--
6:57 AM588653.83-1.74nne5.21--
5:57 AM588754.15---5.21--
4:57 AM588754.15-1.74ssw4.34--
3:57 AM588854.46---4.34--
2:57 AM579154.4-0.87sw3.48--
1:57 AM559453.3-1.74sw3.48--
12:57 AM559353.01-1.74wsw2.61--
High: 79ºf @1:57 PM    Low: ºf @6:57 AM     Approx. Precipitation / Rain Total: in.
Time (PDT)Temp. (ºf)Humidity (%)Dew Point (ºf)Barometer (inHG)Wind Speed (mph)Wind DirectionWind Gust (mph)1hr. Precip / Rain Total (in.)Snow Depth
11:57 PM568952.8-0.87s3.48--
10:57 PM568852.49-1.74sw4.34--
9:57 PM588553.51-2.61s4.34--
8:57 PM608254.49-2.61sw6.08--
7:57 PM627553.98-4.34wsw9.56--
6:57 PM686254.48-6.08wsw11.3--
5:57 PM725454.43-6.08sw12.17--
4:57 PM764854.87-6.08wsw12.17--
3:57 PM784655.52-6.95sw12.17--
2:57 PM784554.92-6.95sw12.17--
1:57 PM794354.57-6.08wsw11.3--
12:57 PM784554.92-4.34wsw12.17--
11:57 AM764955.44-3.48ssw10.43--
10:57 AM735354.84-4.34wnw7.82--
9:57 AM715554.01-1.74e6.08--
8:57 AM666654.31-1.74se6.95--
7:57 AM627353.24-0.87ne6.08--
6:57 AM---------
5:57 AM578251.56-2.61ne6.08--
4:57 AM588352.86-2.61ne7.82--
3:57 AM598454.17-0.87ne5.21--
2:57 AM598454.17-2.61n3.48--
1:57 AM598454.17---3.48--
12:57 AM598454.17-0.87ssw5.21--
High: 79ºf @1:57 PM    Low: 55ºf @5:57 AM     Approx. Precipitation / Rain Total: in.
Time (PDT)Temp. (ºf)Humidity (%)Dew Point (ºf)Barometer (inHG)Wind Speed (mph)Wind DirectionWind Gust (mph)1hr. Precip / Rain Total (in.)Snow Depth
11:57 PM598454.17-0.87sw5.21--
10:57 PM598554.49-1.74sw4.34--
9:57 PM579054.09-1.74wsw4.34--
8:57 PM578753.17-3.48wsw6.08--
7:57 PM608053.81-4.34w9.56--
6:57 PM656854.17-6.08wsw12.17--
5:57 PM676353.98-6.95wsw13.03--
4:57 PM735354.84-6.95wsw13.9--
3:57 PM754954.53-6.95wsw14.77--
2:57 PM784655.52-7.82sw16.51--
1:57 PM794354.57-6.08sw13.03--
12:57 PM784454.3-5.21sw11.3--
11:57 AM754954.53-4.34wsw10.43--
10:57 AM725353.92-4.34wsw9.56--
9:57 AM705754.05-1.74ssw6.95--
8:57 AM676253.54-0.87n4.34--
7:57 AM646451.57-1.74ne6.08--
6:57 AM586847.5-1.74ne6.95--
5:57 AM557547.22-0.87ene6.95--
4:57 AM558149.28-2.61nne6.95--
3:57 AM558450.25-2.61nne6.08--
2:57 AM568651.87-3.48nne6.08--
1:57 AM588453.19-1.74nne6.08--
12:57 AM608154.15---1.74--
High: 82ºf @3:57 PM    Low: 56ºf @1:57 AM     Approx. Precipitation / Rain Total: in.
Time (PDT)Temp. (ºf)Humidity (%)Dew Point (ºf)Barometer (inHG)Wind Speed (mph)Wind DirectionWind Gust (mph)1hr. Precip / Rain Total (in.)Snow Depth
11:57 PM608254.49-0.87wsw2.61--
10:57 PM608354.82-1.74wsw2.61--
9:57 PM588854.46-1.74sw6.08--
8:57 PM598353.84-3.48wsw6.95--
7:57 PM637454.58-3.48wsw10.43--
6:57 PM686254.48-6.95wsw14.77--
5:57 PM744953.61-7.82wsw14.77--
4:57 PM794253.92-8.69sw18.25--
3:57 PM823350.03-5.21wsw9.56--
2:57 PM793548.99-3.48sw7.82--
1:57 PM764251.23-3.48sw8.69--
12:57 PM745054.16-3.48wnw7.82--
11:57 AM695853.6-3.48nw7.82--
10:57 AM656653.36-3.48sw6.95--
9:57 AM627353.24-3.48ssw6.95--
8:57 AM607853.12-3.48ssw6.08--
7:57 AM597751.8---4.34--
6:57 AM577850.21-2.61nne6.08--
5:57 AM568250.58-2.61ne6.95--
4:57 AM578151.23-0.87ne4.34--
3:57 AM579254.7-0.87sw2.61--
1:57 AM569053.11-1.74sw4.34--
12:57 AM578853.48-1.74w3.48--
High: 78ºf @3:57 PM    Low: 52ºf @3:57 AM     Approx. Precipitation / Rain Total: in.
Time (PDT)Temp. (ºf)Humidity (%)Dew Point (ºf)Barometer (inHG)Wind Speed (mph)Wind DirectionWind Gust (mph)1hr. Precip / Rain Total (in.)Snow Depth
11:57 PM568952.8-2.61w4.34--
10:57 PM578452.21-2.61w5.21--
9:57 PM598052.84-2.61w5.21--
8:57 PM617452.65-0.87wsw6.95--
7:57 PM656452.52-3.48sw10.43--
6:57 PM704949.95-6.08wsw11.3--
5:57 PM734751.56-7.82wsw12.17--
4:57 PM764653.71-6.95wsw13.9--
3:57 PM784152.37-6.08wsw13.03--
2:57 PM783648.86-6.08wsw13.9--
1:57 PM763848.54-4.34w11.3--
12:57 PM734349.17-4.34wsw11.3--
11:57 AM715352.99-3.48wsw7.82--
10:57 AM676153.1-2.61ssw7.82--
9:57 AM627252.87-3.48wsw6.95--
8:57 AM607552.05-1.74wsw5.21--
7:57 AM588051.86-0.87wnw3.48--
6:57 AM568350.91-1.74nne3.48--
5:57 AM568952.8-1.74wsw6.08--
4:57 AM559453.3-3.48w5.21--
3:57 AM529450.33-1.74nw5.21--
2:57 AM547746.95-2.61n6.08--
1:57 AM548047.97-0.87n4.34--
12:57 AM557647.57-1.74n6.08--
High: 77ºf @3:57 PM    Low: 53ºf @5:57 AM     Approx. Precipitation / Rain Total: in.
Time (PDT)Temp. (ºf)Humidity (%)Dew Point (ºf)Barometer (inHG)Wind Speed (mph)Wind DirectionWind Gust (mph)1hr. Precip / Rain Total (in.)Snow Depth
11:57 PM567548.19-4.34nne6.08--
10:57 PM577248.06-0.87nnw3.48--
9:57 PM597751.8-0.87s3.48--
8:57 PM626750.91-1.74ssw5.21--
7:57 PM645246.02-3.48wsw8.69--
6:57 PM704145.21-5.21w11.3--
5:57 PM743947.46-6.95w12.17--
4:57 PM764251.23-6.95wsw14.77--
3:57 PM774252.13-7.82sw13.9--
2:57 PM773647.98-6.95sw14.77--
1:57 PM773647.98-5.21wsw12.17--
12:57 PM763344.8-4.34sw10.43--
11:57 AM743443.84-3.48wnw10.43--
10:57 AM723844.99-3.48wnw7.82--
9:57 AM694345.56-2.61ssw7.82--
8:57 AM664845.74-1.74ssw6.95--
7:57 AM615645.19-2.61ne8.69--
6:57 AM566644.8-3.48ne6.08--
5:57 AM537545.29-1.74nne9.56--
4:57 AM557246.14-2.61ene8.69--
3:57 AM557446.87-3.48ene7.82--
2:57 AM557647.57-4.34ne8.69--
1:57 AM557747.92-5.21nne7.82--
12:57 AM557747.92-3.48nne6.95--
High: 78ºf @2:57 PM    Low: 50ºf @3:57 AM     Approx. Precipitation / Rain Total: in.
Time (PDT)Temp. (ºf)Humidity (%)Dew Point (ºf)Barometer (inHG)Wind Speed (mph)Wind DirectionWind Gust (mph)1hr. Precip / Rain Total (in.)Snow Depth
11:57 PM557747.92-0.87ne3.48--
10:57 PM586847.5-3.48ne7.82--
9:57 PM567247.1---3.48--
8:57 PM596045.13-2.61w4.34--
7:57 PM634943.53-3.48wsw8.69--
6:57 PM693842.33-5.21sw10.43--
5:57 PM723442.08-5.21wsw11.3--
4:57 PM743343.06-6.08sw12.17--
3:57 PM773345.67-6.08sw13.03--
2:57 PM782943.15-4.34sw9.56--
1:57 PM763344.8-5.21w10.43--
12:57 PM733946.57-4.34wsw8.69--
11:57 AM714146.1-2.61w7.82--
10:57 AM674645.53-2.61nw7.82--
9:57 AM655146.42-1.74wnw6.08--
8:57 AM615645.19-1.74n6.08--
7:57 AM585943.75-3.48ne10.43--
6:57 AM526841.77-4.34ne11.3--
5:57 AM507542.39-4.34ne11.3--
4:57 AM507743.08-3.48ne9.56--
3:57 AM507843.41-2.61nne8.69--
2:57 AM517643.7-4.34nne8.69--
1:57 AM527544.32-3.48nne6.95--
12:57 AM537645.64-2.61ene7.82--
High: 70ºf @3:57 PM    Low: 52ºf @6:57 AM     Approx. Precipitation / Rain Total: in.
Time (PDT)Temp. (ºf)Humidity (%)Dew Point (ºf)Barometer (inHG)Wind Speed (mph)Wind DirectionWind Gust (mph)1hr. Precip / Rain Total (in.)Snow Depth
11:57 PM537645.64-1.74ene6.08--
10:57 PM556744.25-0.87e6.95--
9:57 PM576043.25-1.74ene9.56--
8:57 PM595643.32-3.48e10.43--
7:57 PM615042.22-2.61e12.17--
6:57 PM644542.23-7.82e15.64--
5:57 PM664141.62-8.69sse17.38--
4:57 PM693741.63-10.43s16.51--
3:57 PM703440.33-7.82s14.77--
2:57 PM703843.21-6.08wsw18.25--
1:57 PM694144.31-6.95w12.17--
12:57 PM674444.36-3.48nw9.56--
11:57 AM654643.71-2.61nne8.69--
10:57 AM615946.57-1.74e6.95--
9:57 AM596848.45-1.74sse6.95--
8:57 AM558550.57-3.48s6.08--
7:57 AM539250.74-1.74sw5.21--
6:57 AM529550.61-3.48wsw10.43--
5:57 AM539651.89-2.61w9.56--
4:57 AM549753.17-6.95wsw14.77--
3:57 AM5510055-1.74sw5.21--
2:57 AM549953.72-3.48sw8.69--
1:57 AM559954.72-3.48wsw6.95--
12:57 AM559553.59-2.61s8.69--
High: 68ºf @2:57 PM    Low: 55ºf @12:57 AM     Approx. Precipitation / Rain Total: in.
Time (PDT)Temp. (ºf)Humidity (%)Dew Point (ºf)Barometer (inHG)Wind Speed (mph)Wind DirectionWind Gust (mph)1hr. Precip / Rain Total (in.)Snow Depth
11:57 PM578251.56-4.34sw8.69--
10:57 PM578050.89-4.34wsw8.69--
9:57 PM588051.86-4.34wsw6.95--
8:57 PM587951.52-4.34w7.82--
7:57 PM597751.8-4.34wsw8.69--
6:57 PM617352.28-4.34wsw11.3--
5:57 PM627252.87-6.08w13.03--
4:57 PM656854.17-6.95w14.77--
3:57 PM666353.04-6.08ssw10.43--
2:57 PM686053.59-3.48sw7.82--
1:57 PM676253.54-3.48wsw7.82--
12:57 PM647455.54-3.48sw8.69--
11:57 AM646853.22-3.48s6.95--
10:57 AM656653.36-0.87nw3.48--
9:57 AM627654.34---5.21--
8:57 AM608154.15-3.48nnw5.21--
7:57 AM598454.17-0.87wsw2.61--
6:57 AM598554.49---1.74--
5:57 AM598554.49-0.87wsw4.34--
4:57 AM598454.17-0.87wnw3.48--
3:57 AM598554.49-0.87wsw1.74--
2:57 AM588453.19---1.74--
1:57 AM588754.15---1.74--
12:57 AM559353.01---2.61--
High: 68ºf @6:57 PM    Low: 55ºf @11:57 PM     Approx. Precipitation / Rain Total: in.
Time (PDT)Temp. (ºf)Humidity (%)Dew Point (ºf)Barometer (inHG)Wind Speed (mph)Wind DirectionWind Gust (mph)1hr. Precip / Rain Total (in.)Snow Depth
11:57 PM559052.12-1.74wsw3.48--
10:57 PM568852.49-2.61wsw4.34--
9:57 PM578452.21-2.61w4.34--
8:57 PM598052.84-2.61wsw6.08--
7:57 PM627353.24-3.48wsw8.69--
6:57 PM686455.36-5.21wsw10.43--
Past Weather Disclaimer Note regarding "Approx. Precipitation / Rain Total"

Currently

Overcast with Haze 64°F
30.06in
Barometer
73%
Humidity
South 8.1mph
Wind
Overcast with Haze

Past Weather Nearby

More Local Information

Bookmark and Share